Location: Nijmegen RU
(51.8233°N, 354.1314°E)
Time: 21:18:45
(UTC+01:00)

Envisat - Pass Details

Date: 24 February 2019
Orbit: 764 x 766 km, 98.2° (Epoch: 22 March)

Event Time Altitude Azimuth Distance (km) Brightness Sun altitude
Rises 20:44:01 0° 192° (SSW) 3,222 6.3 -17.7°
Reaches altitude 10° 20:46:32 10° 202° (SSW) 2,300 5.6 -18.1°
Maximum altitude 20:51:05 33° 265° (W) 1,280 4.8 -18.8°
Drops below altitude 10° 20:55:39 10° 329° (NNW) 2,315 6.0 -19.5°
Sets 20:58:12 0° 339° (NNW) 3,246 6.7 -19.9°
